SCP
0 0 0 0 0 0 0 0 0 0 0 0 0 0 -0 0 0 0 0 0 0 0 0 -0 -0 -0 -0 -0 -0 0 -0 -0 -0 0 0 0 0 0 -0 -0 -0 -0 -0 -0 0 0 0 0 0
0 0 0 0 0 0 0 0 0 0 0 0 0 0 0 0 -0 0 0 0 0 0 0 0 -0 -0 -0 -0 -0 0 0 0 0 0 -0 -0 0 -0 -0 -0 -0 -0 -0 -0 -0 -0 -0 0 0
0 0 0 0 0 0 0 0 0 0 0 -0 0 0 0 -0 -0 0 0 -0 0 0 0 -0 0 -0 -0 -0 -0 -0 -0 -0 -0 -0 -0 -0 -0 -0 -0 -0 -0 -0 -0 -0 -0 0 0 0 0
0 0 0 0 0 0 0 0 0 0 0 0 0 0 0 0 0 -0 0 -0 0 0 0 0 0 0 -0 -0 -0 -0 0 0 -0 -0 -0 -0 -0 -0 -0 -0 -0 -0 -0 -0 0 0 0 0 0
0 0 0 0 0 -0 0 0 0 0 -0 0 0 -0 0 0 0 0 -0 0 0 0 0 0 0 0 0 -0 -0 -0 0 -0 -0 -0 -0 -0 -0 -0 -0 -0 -0 0 0 0 0 0 0 0 0
0 0 0 0 0 -0 -0 0 0 -0 0 0 0 0 0 0 0 0 0 0 0 0 0 0 0 0 0 0 0 -0 -0 -0 -0 -0 -0 -0 -0 -0 -0 -0 -0 0 0 0 0 0 0 0 0
0 0 0 0 -0 -0 -0 -0 0 0 0 0 0 0 0 0 0 0 0 0 0 0 0 0 0 0 0 0 0 0 0 -0 -0 -0 -0 -0 -0 -0 -0 -0 0 0 0 0 0 0 0 0 0
0 0 0 0 -0 -0 -0 -0 -0 0 0 0 0 0 0 0 0 0 0 0 0 0 0 0 0 0 0 0 0 0 0 0 0 0 0 0 -0 0 0 0 0 0 0 0 0 0 0 0 0
0 0 0 0 0 -0 -0 0 0 0 0 0 0 0 -0 0 0 0 0 0 0 0 0 0 0 0 0 0 0 0 0 0 0 0 0 0 0 0 0 0 0 0 0 0 0 0 0 0 0
0 0 0 0 0 -0 -0 0 -0 0 0 0 0 0 0 0 0 0 0 0 0 0 0 0 0 0 0 0 0 0 0 0 0 0 0 0 0 0 0 0 0 0 0 0 0 0 0 0 0
0 0 0 0 0 0 0 -0 0 0 0 0 0 0 0 0 0 0 0 0 0 0 0 0 0 0 0 0 0 0 0 0 0 0 0 0 0 0 0 0 0 0 0 0 0 0 0 0 0
0 0 0 0 0 0 0 0 0 0 -0 0 0 0 0 0 0 0 0 0 0 0 0 0 0 0 0 0 0 0 0 0 0 0 0 0 0 0 0 0 0 0 0 0 0 0 0 0 0
0 0 0 0 0 0 0 0 0 0 0 0 0 0 0 0 0 0 0 0 0 0 0 0 0 0 0 0 0 0 0 0 0 0 0 0 0 0 0 0 0 0 0 0 0 0 0 0 0
0 0 0 0 0 0 0 0 0 0 0 0 0 0 0 0 0 0 0 0 0 0 0 0 0 0 0 0 0 0 0 0 0 0 0 0 0 0 0 0 0 0 0 0 0 0 0 0 0
0 0 0 0 0 0 0 0 0 0 0 0 0 0 0 0 0 0 0 0 0 0 0 0 0 0 0 0 0 0 0 0 0 0 0 0 0 0 0 0 0 0 0 0 0 0 0 0 0
0 0 0 0 0 0 0 0 0 0 0 0 0 0 0 0 0 0 0 0 0 0 0 0 0 0 0 0 0 0 0 0 0 0 0 0 0 0 0 0 0 0 0 0 0 0 0 0 0
0 0 0 0 0 0 0 0 0 0 0 0 0 0 0 0 0 0 0 0 0 0 0 0 0 0 0 0 0 0 0 0 0 0 0 0 0 0 0 0 0 0 0 0 0 0 0 0 0
0 0 0 0 0 0 0 0 0 0 0 0 0 0 0 0 0 0 0 0 0 0 0 0 0 0 0 0 0 0 0 0 0 0 0 0 0 0 0 0 0 0 0 0 0 0 0 0 0
0 0 0 0 0 0 0 0 0 0 0 0 0 0 0 0 0 0 0 0 0 0 0 0 0 0 0 0 0 0 0 0 0 0 0 0 0 0 0 0 0 0 0 0 0 0 0 0 0
0 0 0 0 0 0 0 0 0 0 0 0 0 0 0 0 0 0 0 0 0 0 0 0 0 0 0 0 0 0 0 0 0 0 0 0 0 0 0 0 0 0 0 0 0 0 0 0 0
0 0 0 0 0 0 0 0 0 0 0 0 0 0 0 0 0 0 0 0 0 0 0 0 0 0 0 0 0 0 0 0 0 0 0 0 0 0 0 0 0 0 0 0 0 0 0 0 0
0 0 0 0 0 0 0 -0 0 0 0 0 0 0 0 0 0 0 0 0 0 0 0 0 0 0 0 0 0 0 0 0 0 0 0 0 0 0 0 0 0 0 0 0 0 0 0 0 0
0 0 0 0 0 0 0 0 -0 -0 0 0 0 0 0 0 0 0 0 0 0 0 0 0 0 0 0 0 0 0 0 0 0 0 0 0 0 0 0 0 0 0 0 0 0 0 0 0 0
0 0 0 0 0 0 0 0 0 0 0 0 0 0 0 0 0 0 0 0 0 0 0 0 0 0 0 0 0 0 0 0 0 0 0 0 0 0 0 0 0 0 0 0 0 0 0 0 0
0 0 0 0 0 0 0 0 0 0 0 0 0 0 0 0 0 0 0 0 0 0 0 0 0 0 0 0 0 0 0 0 0 0 0 0 0 0 0 0 0 0 0 0 0 0 0 0 0
0 0 0 0 0 0 0 0 0 0 0 0 0 0 0 0 0 0 0 0 0 0 0 0 0 0 0 0 0 0 0 0 0 0 0 0 0 0 0 0 0 0 0 0 0 0 0 0 0
0 0 0 0 0 0 0 0 0 0 0 0 0 0 0 0 0 0 0 0 0 0 0 0 0 0 0 0 0 0 0 0 0 0 0 0 0 0 0 0 0 0 0 0 0 0 0 0 0
0 0 0 0 0 0 0 0 0 0 0 0 0 0 0 0 0 0 0 0 0 0 0 0 0 0 0 0 0 0 0 0 0 0 0 0 0 0 0 0 0 0 0 0 0 0 0 0 0
0 0 0 0 0 0 0 0 0 0 0 0 0 0 0 0 0 0 0 0 0 0 0 0 0 0 0 0 0 0 0 0 0 0 0 0 0 0 0 0 0 0 0 0 0 0 0 0 0
0 0 0 0 0 0 0 0 0 0 0 0 0 0 0 0 0 0 -0 0 0 0 0 0 0 0 0 0 0 0 0 0 0 0 0 0 0 0 0 0 0 0 0 0 0 0 0 0 0
Wind_Speed_500mb
27 6 2 5 7 9 7 4 9 11 8 15 21 18 19 14 6 6 35 36 30 44 40 36 29 23 23 27 30 29 26 18 20 19 16 14 15 18 16 17 23 23 22 26 25 27 28 27 28
30 4 2 4 7 6 6 5 16 9 19 24 19 12 7 4 14 33 43 28 27 41 39 35 31 27 23 25 27 29 29 25 18 16 14 12 12 12 11 10 18 19 19 20 22 23 23 25 26
22 6 5 6 6 5 6 6 14 22 25 20 9 11 10 12 23 51 39 35 28 45 39 37 32 27 25 23 27 27 27 22 16 11 9 8 10 10 8 6 9 13 15 17 17 17 18 20 22
25 6 8 5 4 1 5 15 30 16 12 7 19 15 14 10 39 39 40 35 35 43 43 36 29 24 22 21 22 23 23 20 16 13 10 9 9 10 9 6 4 7 12 11 11 12 14 14 15
17 6 1 1 1 4 10 23 39 12 17 11 8 10 15 28 20 36 46 38 32 41 39 34 30 24 21 20 20 22 23 22 19 16 12 14 14 12 9 7 5 2 5 6 6 6 7 7 8
12 4 6 1 6 6 7 9 18 20 21 17 8 19 12 20 28 45 48 42 31 39 38 34 31 27 25 23 23 22 22 22 19 18 16 16 14 13 13 11 7 5 4 3 2 1 0 1 2
7 6 6 5 10 7 9 13 6 8 19 6 7 9 22 32 24 60 47 40 32 34 36 34 31 29 28 26 25 24 23 19 18 15 15 14 11 13 13 11 8 7 7 6 5 6 6 6 6
11 6 10 11 8 5 15 18 12 8 5 21 10 10 13 37 35 57 46 39 33 30 29 35 32 30 28 25 26 26 25 22 20 18 14 14 11 6 6 7 8 10 10 10 9 10 10 10 11
9 6 6 10 16 8 29 7 9 12 16 7 10 10 10 39 40 55 53 47 41 36 32 38 35 31 29 28 28 28 27 25 26 24 21 19 16 12 12 12 11 11 10 10 11 12 13 14 14
4 3 7 14 16 6 21 18 19 7 12 9 14 11 26 37 47 58 60 57 54 48 42 37 38 34 32 30 30 30 30 28 27 26 25 23 21 18 20 17 16 15 13 13 14 14 15 15 17
5 9 7 7 24 21 7 8 19 15 5 21 33 34 45 39 46 57 61 55 49 48 44 42 38 37 36 35 32 33 32 31 31 31 29 27 26 27 25 21 20 19 20 18 18 18 16 15 17
3 19 18 8 13 14 10 20 3 23 13 9 40 36 45 46 45 56 62 61 53 49 46 47 41 43 36 35 35 34 36 35 36 35 35 34 33 34 31 28 27 27 25 22 22 20 21 20 20
7 8 14 21 9 7 12 14 10 25 20 19 10 50 45 44 42 45 52 57 54 52 47 51 49 44 42 42 39 37 38 40 39 39 39 38 37 36 35 33 34 33 31 27 25 25 26 27 27
3 8 16 16 13 5 5 11 7 11 24 18 23 35 48 44 41 43 49 55 63 58 53 50 54 53 51 49 46 43 41 40 40 39 39 39 38 39 41 41 39 38 35 32 31 29 30 31 31
4 8 11 10 13 7 1 8 19 46 34 19 32 33 38 40 37 47 46 50 54 60 53 51 50 49 59 58 56 52 46 44 46 44 41 43 42 42 45 46 43 40 37 37 37 35 34 33 32
3 6 4 10 23 14 19 15 22 26 38 40 32 41 40 38 43 42 43 43 47 49 53 51 49 51 52 63 63 62 59 56 56 53 48 49 49 47 47 48 45 41 40 39 38 36 36 35 33
4 5 11 12 25 10 11 12 20 12 20 43 43 40 45 44 47 45 41 42 45 53 57 59 57 56 53 54 60 66 65 65 60 55 54 54 56 55 54 52 47 45 44 43 41 39 38 37 36
15 9 9 10 7 10 9 15 16 38 35 33 25 37 43 43 58 48 46 43 45 47 51 56 58 59 56 54 56 60 63 61 57 58 58 55 55 55 55 54 52 52 51 47 45 43 41 41 38
5 5 9 9 8 3 10 11 23 32 40 49 47 44 40 47 38 43 55 49 46 51 53 57 61 61 60 64 66 67 68 65 62 62 59 59 56 53 54 55 53 55 57 51 46 46 43 42 38
18 11 9 13 4 2 9 17 22 27 29 51 56 60 54 50 52 47 40 63 58 55 59 64 68 68 67 67 68 70 68 69 65 65 65 61 60 59 57 55 55 55 59 57 53 52 46 43 41
5 8 7 12 1 6 7 15 13 18 30 52 65 60 64 65 61 63 59 51 60 67 66 66 69 72 74 75 74 73 73 73 72 72 70 67 64 64 62 58 56 55 59 61 58 54 48 47 43
6 3 9 9 7 6 5 12 12 14 21 12 44 55 79 82 75 73 66 62 66 63 63 68 71 75 77 79 82 83 83 82 80 79 74 69 67 65 64 65 65 62 60 63 62 58 53 49 49
7 8 5 6 5 7 4 8 15 10 13 19 23 47 50 55 66 64 63 67 71 69 58 66 76 79 82 82 87 89 89 89 84 81 77 71 68 67 65 66 71 72 67 65 66 65 58 54 51
8 9 9 7 5 6 14 13 12 15 16 14 11 32 48 46 43 43 47 49 47 53 57 64 63 63 74 87 87 92 94 90 89 84 83 79 73 72 71 71 75 74 71 71 69 63 57 56 50
10 12 3 4 0 14 11 16 23 13 21 16 22 34 19 22 19 21 22 28 33 38 45 55 59 61 59 67 81 87 92 93 93 88 84 83 80 77 73 72 71 71 71 70 69 62 57 56 54
18 18 10 14 8 8 2 15 12 12 13 12 17 17 13 10 20 26 28 30 31 38 41 40 40 50 60 67 73 78 80 86 91 91 85 84 78 76 72 70 67 66 66 66 64 64 61 56 53
7 17 15 5 4 4 9 14 15 14 18 24 24 12 14 14 14 18 23 27 31 31 26 30 36 41 47 55 62 64 69 79 87 85 84 81 78 77 72 70 70 67 62 62 64 65 63 58 53
11 12 7 6 7 8 10 9 12 15 8 7 12 10 16 18 17 18 23 24 24 26 25 27 26 27 30 34 38 46 52 54 62 70 77 79 75 70 67 68 67 63 62 65 66 65 60 58 52
7 5 4 2 8 8 4 10 12 15 14 15 9 5 17 24 17 21 27 26 22 15 9 12 15 19 22 23 27 35 43 47 51 54 58 62 63 62 64 62 58 58 62 64 62 59 58 55 50
5 10 13 7 8 7 12 18 5 8 10 25 22 32 33 40 31 28 27 27 17 8 12 17 24 30 30 28 25 23 27 35 44 48 51 54 58 59 59 57 55 56 57 58 59 61 59 54 51
Wind_Direction_500mb
10 102 82 334 46 76 274 19 116 103 50 94 79 80 110 74 64 153 150 174 183 165 162 156 153 149 141 146 151 145 140 139 141 137 147 145 126 115 118 115 101 99 94 93 89 83 80 79 78
5 331 5 313 95 40 298 145 100 91 116 101 94 83 74 106 123 141 161 181 180 169 163 159 157 156 150 150 158 162 158 158 140 134 123 136 137 129 106 94 100 103 100 96 90 86 83 78 77
18 321 286 133 137 117 161 125 131 113 118 136 112 91 99 124 146 153 164 176 181 172 166 163 161 161 159 159 165 171 176 179 174 162 147 136 147 147 133 104 101 99 95 91 97 91 83 77 75
348 227 250 98 153 200 90 141 130 119 104 94 120 84 91 162 150 160 171 182 171 175 169 166 166 165 166 169 172 174 175 179 186 186 179 164 159 163 160 159 115 111 95 96 99 90 86 81 77
1 233 319 23 228 134 70 141 131 129 155 166 114 143 102 159 167 165 176 183 183 177 171 171 175 173 178 181 179 179 177 178 183 189 184 179 174 168 175 181 183 116 92 108 101 90 80 78 74
346 344 38 66 136 125 87 96 142 145 137 143 116 119 148 177 180 170 179 184 187 184 179 183 182 183 186 192 187 186 190 189 195 199 197 195 193 189 190 193 203 208 215 191 161 165 70 24 24
32 53 264 312 166 152 170 145 95 140 145 157 115 93 149 181 185 168 178 190 193 193 186 185 191 192 193 197 197 192 199 198 198 201 201 197 192 198 201 201 210 231 245 247 245 251 254 265 280
329 80 308 319 181 136 158 140 162 126 103 143 164 153 172 184 169 165 174 193 200 206 207 189 193 199 201 203 206 204 202 200 205 213 210 206 183 184 188 197 213 222 241 255 259 263 271 277 285
314 37 291 318 1 152 153 117 126 111 129 116 150 150 182 172 170 168 177 192 199 207 213 199 196 200 204 205 207 210 208 204 206 215 218 213 209 221 222 226 229 233 244 257 266 271 277 281 286
88 104 247 31 1 177 168 144 164 156 135 145 131 140 168 172 178 175 184 198 206 206 210 214 197 204 208 211 212 213 214 214 215 218 222 224 227 234 231 233 236 244 254 264 269 274 279 284 286
221 203 314 358 16 13 162 182 180 154 229 205 189 171 177 184 188 187 193 210 212 212 218 215 212 208 209 214 217 219 220 221 221 224 226 230 234 244 244 245 249 262 269 268 270 275 279 280 285
268 269 271 341 352 357 347 339 226 200 196 336 220 210 195 198 198 197 199 209 218 219 227 219 215 214 214 224 218 222 226 226 226 229 231 232 236 241 252 257 262 262 264 269 273 279 281 284 285
229 278 305 303 289 298 298 298 283 292 244 255 234 205 206 209 212 210 209 211 225 227 218 223 221 219 219 228 235 231 232 230 232 232 235 237 238 244 250 252 256 259 260 265 274 282 287 291 291
314 341 309 298 284 261 231 259 312 265 259 241 220 197 211 215 220 214 213 216 221 233 231 228 229 227 222 228 236 237 239 240 236 240 242 244 246 245 248 251 252 259 265 272 275 277 278 280 281
269 344 337 277 246 244 38 290 230 247 245 271 218 208 210 221 224 226 229 225 225 225 231 232 228 221 227 230 235 238 240 243 247 246 247 247 245 246 247 250 252 256 260 264 267 270 272 276 282
142 90 291 260 216 230 170 256 248 255 241 243 242 215 212 229 237 241 233 240 233 231 231 237 235 231 227 230 234 237 240 242 243 247 250 253 253 251 251 253 255 256 255 257 260 264 269 274 276
281 211 211 290 216 173 165 246 262 261 252 251 246 236 227 234 232 238 243 241 234 231 233 237 240 239 236 234 233 237 240 241 244 244 247 249 253 255 254 256 258 256 255 256 259 261 265 270 275
194 205 231 224 313 155 185 248 275 282 298 287 275 247 239 239 230 235 239 245 241 237 233 235 243 247 243 242 242 243 243 245 244 242 244 246 245 248 254 254 252 252 252 252 253 258 262 267 270
321 353 311 269 320 165 248 245 273 282 283 277 269 262 257 247 245 244 237 244 242 241 239 237 236 242 241 239 239 241 243 245 245 249 248 249 251 250 248 250 250 248 250 253 254 257 256 258 265
260 267 254 292 178 210 271 263 261 268 262 264 263 260 255 255 255 248 242 235 236 241 243 244 243 243 245 244 246 246 250 251 252 253 253 254 254 255 253 251 251 247 246 247 248 251 251 257 253
221 222 223 235 344 262 280 275 267 267 263 254 253 253 258 251 249 249 243 240 238 236 241 244 248 249 251 252 251 250 251 251 251 250 251 252 253 255 255 254 252 247 244 245 247 249 249 253 255
252 292 234 269 353 236 48 278 275 298 289 248 261 251 252 252 252 252 250 246 247 247 246 247 249 251 253 254 252 254 254 253 257 260 259 256 255 254 256 256 254 252 244 242 244 248 249 246 248
205 75 45 193 166 18 295 321 287 273 298 288 257 250 254 256 255 256 261 261 254 255 253 251 250 252 252 251 252 255 256 259 262 260 259 257 256 254 255 256 256 254 251 242 242 246 242 242 244
151 98 42 44 85 282 191 197 207 226 217 245 276 274 259 261 265 266 266 262 261 260 260 259 254 253 254 251 252 252 255 257 258 258 257 257 253 251 252 253 253 253 253 247 243 244 241 241 245
145 114 47 7 354 237 219 205 252 285 275 221 257 281 280 260 271 273 262 258 253 250 254 258 257 255 251 249 248 250 253 256 260 262 260 256 255 254 254 252 249 250 251 245 241 244 243 243 246
180 167 167 197 202 271 210 235 256 230 257 263 257 294 320 301 301 294 290 281 260 271 276 254 258 259 256 253 246 245 248 253 256 258 261 260 256 255 259 260 257 255 252 241 238 242 243 244 244
191 209 210 40 52 75 245 292 302 272 285 301 6 11 1 337 316 304 299 297 284 277 278 269 273 274 267 261 256 253 252 250 253 255 257 259 257 256 257 257 255 256 247 240 238 237 237 242 247
160 155 156 188 203 238 255 252 237 300 286 60 59 32 10 350 332 318 316 310 302 288 284 293 298 293 285 279 267 260 259 256 256 256 257 258 258 253 250 251 251 246 239 235 234 234 237 239 238
207 221 203 215 177 204 267 258 237 217 157 128 197 29 15 3 358 3 356 347 330 318 330 4 356 344 334 321 301 281 263 255 257 257 256 254 254 251 252 251 248 241 235 232 232 233 232 232 233
290 250 212 183 234 242 262 258 328 126 180 32 23 6 3 348 322 328 335 343 347 54 19 11 5 355 341 330 321 313 295 271 261 257 253 251 252 251 253 252 246 241 236 232 230 228 228 228 228
Wind_Speed_850mb
27 6 2 5 7 9 7 4 9 11 8 15 21 18 19 14 6 6 35 36 30 44 40 36 29 23 23 27 30 29 26 18 20 19 16 14 15 18 16 17 23 23 22 26 25 27 28 27 28
30 4 2 4 7 6 6 5 16 9 19 24 19 12 7 4 14 33 43 28 27 41 39 35 31 27 23 25 27 29 29 25 18 16 14 12 12 12 11 10 18 19 19 20 22 23 23 25 26
22 6 5 6 6 5 6 6 14 22 25 20 9 11 10 12 23 51 39 35 28 45 39 37 32 27 25 23 27 27 27 22 16 11 9 8 10 10 8 6 9 13 15 17 17 17 18 20 22
25 6 8 5 4 1 5 15 30 16 12 7 19 15 14 10 39 39 40 35 35 43 43 36 29 24 22 21 22 23 23 20 16 13 10 9 9 10 9 6 4 7 12 11 11 12 14 14 15
17 6 1 1 1 4 10 23 39 12 17 11 8 10 15 28 20 36 46 38 32 41 39 34 30 24 21 20 20 22 23 22 19 16 12 14 14 12 9 7 5 2 5 6 6 6 7 7 8
12 4 6 1 6 6 7 9 18 20 21 17 8 19 12 20 28 45 48 42 31 39 38 34 31 27 25 23 23 22 22 22 19 18 16 16 14 13 13 11 7 5 4 3 2 1 0 1 2
7 6 6 5 10 7 9 13 6 8 19 6 7 9 22 32 24 60 47 40 32 34 36 34 31 29 28 26 25 24 23 19 18 15 15 14 11 13 13 11 8 7 7 6 5 6 6 6 6
11 6 10 11 8 5 15 18 12 8 5 21 10 10 13 37 35 57 46 39 33 30 29 35 32 30 28 25 26 26 25 22 20 18 14 14 11 6 6 7 8 10 10 10 9 10 10 10 11
9 6 6 10 16 8 29 7 9 12 16 7 10 10 10 39 40 55 53 47 41 36 32 38 35 31 29 28 28 28 27 25 26 24 21 19 16 12 12 12 11 11 10 10 11 12 13 14 14
4 3 7 14 16 6 21 18 19 7 12 9 14 11 26 37 47 58 60 57 54 48 42 37 38 34 32 30 30 30 30 28 27 26 25 23 21 18 20 17 16 15 13 13 14 14 15 15 17
5 9 7 7 24 21 7 8 19 15 5 21 33 34 45 39 46 57 61 55 49 48 44 42 38 37 36 35 32 33 32 31 31 31 29 27 26 27 25 21 20 19 20 18 18 18 16 15 17
3 19 18 8 13 14 10 20 3 23 13 9 40 36 45 46 45 56 62 61 53 49 46 47 41 43 36 35 35 34 36 35 36 35 35 34 33 34 31 28 27 27 25 22 22 20 21 20 20
7 8 14 21 9 7 12 14 10 25 20 19 10 50 45 44 42 45 52 57 54 52 47 51 49 44 42 42 39 37 38 40 39 39 39 38 37 36 35 33 34 33 31 27 25 25 26 27 27
3 8 16 16 13 5 5 11 7 11 24 18 23 35 48 44 41 43 49 55 63 58 53 50 54 53 51 49 46 43 41 40 40 39 39 39 38 39 41 41 39 38 35 32 31 29 30 31 31
4 8 11 10 13 7 1 8 19 46 34 19 32 33 38 40 37 47 46 50 54 60 53 51 50 49 59 58 56 52 46 44 46 44 41 43 42 42 45 46 43 40 37 37 37 35 34 33 32
3 6 4 10 23 14 19 15 22 26 38 40 32 41 40 38 43 42 43 43 47 49 53 51 49 51 52 63 63 62 59 56 56 53 48 49 49 47 47 48 45 41 40 39 38 36 36 35 33
4 5 11 12 25 10 11 12 20 12 20 43 43 40 45 44 47 45 41 42 45 53 57 59 57 56 53 54 60 66 65 65 60 55 54 54 56 55 54 52 47 45 44 43 41 39 38 37 36
15 9 9 10 7 10 9 15 16 38 35 33 25 37 43 43 58 48 46 43 45 47 51 56 58 59 56 54 56 60 63 61 57 58 58 55 55 55 55 54 52 52 51 47 45 43 41 41 38
5 5 9 9 8 3 10 11 23 32 40 49 47 44 40 47 38 43 55 49 46 51 53 57 61 61 60 64 66 67 68 65 62 62 59 59 56 53 54 55 53 55 57 51 46 46 43 42 38
18 11 9 13 4 2 9 17 22 27 29 51 56 60 54 50 52 47 40 63 58 55 59 64 68 68 67 67 68 70 68 69 65 65 65 61 60 59 57 55 55 55 59 57 53 52 46 43 41
5 8 7 12 1 6 7 15 13 18 30 52 65 60 64 65 61 63 59 51 60 67 66 66 69 72 74 75 74 73 73 73 72 72 70 67 64 64 62 58 56 55 59 61 58 54 48 47 43
6 3 9 9 7 6 5 12 12 14 21 12 44 55 79 82 75 73 66 62 66 63 63 68 71 75 77 79 82 83 83 82 80 79 74 69 67 65 64 65 65 62 60 63 62 58 53 49 49
7 8 5 6 5 7 4 8 15 10 13 19 23 47 50 55 66 64 63 67 71 69 58 66 76 79 82 82 87 89 89 89 84 81 77 71 68 67 65 66 71 72 67 65 66 65 58 54 51
8 9 9 7 5 6 14 13 12 15 16 14 11 32 48 46 43 43 47 49 47 53 57 64 63 63 74 87 87 92 94 90 89 84 83 79 73 72 71 71 75 74 71 71 69 63 57 56 50
10 12 3 4 0 14 11 16 23 13 21 16 22 34 19 22 19 21 22 28 33 38 45 55 59 61 59 67 81 87 92 93 93 88 84 83 80 77 73 72 71 71 71 70 69 62 57 56 54
18 18 10 14 8 8 2 15 12 12 13 12 17 17 13 10 20 26 28 30 31 38 41 40 40 50 60 67 73 78 80 86 91 91 85 84 78 76 72 70 67 66 66 66 64 64 61 56 53
7 17 15 5 4 4 9 14 15 14 18 24 24 12 14 14 14 18 23 27 31 31 26 30 36 41 47 55 62 64 69 79 87 85 84 81 78 77 72 70 70 67 62 62 64 65 63 58 53
11 12 7 6 7 8 10 9 12 15 8 7 12 10 16 18 17 18 23 24 24 26 25 27 26 27 30 34 38 46 52 54 62 70 77 79 75 70 67 68 67 63 62 65 66 65 60 58 52
7 5 4 2 8 8 4 10 12 15 14 15 9 5 17 24 17 21 27 26 22 15 9 12 15 19 22 23 27 35 43 47 51 54 58 62 63 62 64 62 58 58 62 64 62 59 58 55 50
5 10 13 7 8 7 12 18 5 8 10 25 22 32 33 40 31 28 27 27 17 8 12 17 24 30 30 28 25 23 27 35 44 48 51 54 58 59 59 57 55 56 57 58 59 61 59 54 51
Wind_Direction_850mb
10 102 82 334 46 76 274 19 116 103 50 94 79 80 110 74 64 153 150 174 183 165 162 156 153 149 141 146 151 145 140 139 141 137 147 145 126 115 118 115 101 99 94 93 89 83 80 79 78
5 331 5 313 95 40 298 145 100 91 116 101 94 83 74 106 123 141 161 181 180 169 163 159 157 156 150 150 158 162 158 158 140 134 123 136 137 129 106 94 100 103 100 96 90 86 83 78 77
18 321 286 133 137 117 161 125 131 113 118 136 112 91 99 124 146 153 164 176 181 172 166 163 161 161 159 159 165 171 176 179 174 162 147 136 147 147 133 104 101 99 95 91 97 91 83 77 75
348 227 250 98 153 200 90 141 130 119 104 94 120 84 91 162 150 160 171 182 171 175 169 166 166 165 166 169 172 174 175 179 186 186 179 164 159 163 160 159 115 111 95 96 99 90 86 81 77
1 233 319 23 228 134 70 141 131 129 155 166 114 143 102 159 167 165 176 183 183 177 171 171 175 173 178 181 179 179 177 178 183 189 184 179 174 168 175 181 183 116 92 108 101 90 80 78 74
346 344 38 66 136 125 87 96 142 145 137 143 116 119 148 177 180 170 179 184 187 184 179 183 182 183 186 192 187 186 190 189 195 199 197 195 193 189 190 193 203 208 215 191 161 165 70 24 24
32 53 264 312 166 152 170 145 95 140 145 157 115 93 149 181 185 168 178 190 193 193 186 185 191 192 193 197 197 192 199 198 198 201 201 197 192 198 201 201 210 231 245 247 245 251 254 265 280
329 80 308 319 181 136 158 140 162 126 103 143 164 153 172 184 169 165 174 193 200 206 207 189 193 199 201 203 206 204 202 200 205 213 210 206 183 184 188 197 213 222 241 255 259 263 271 277 285
314 37 291 318 1 152 153 117 126 111 129 116 150 150 182 172 170 168 177 192 199 207 213 199 196 200 204 205 207 210 208 204 206 215 218 213 209 221 222 226 229 233 244 257 266 271 277 281 286
88 104 247 31 1 177 168 144 164 156 135 145 131 140 168 172 178 175 184 198 206 206 210 214 197 204 208 211 212 213 214 214 215 218 222 224 227 234 231 233 236 244 254 264 269 274 279 284 286
221 203 314 358 16 13 162 182 180 154 229 205 189 171 177 184 188 187 193 210 212 212 218 215 212 208 209 214 217 219 220 221 221 224 226 230 234 244 244 245 249 262 269 268 270 275 279 280 285
268 269 271 341 352 357 347 339 226 200 196 336 220 210 195 198 198 197 199 209 218 219 227 219 215 214 214 224 218 222 226 226 226 229 231 232 236 241 252 257 262 262 264 269 273 279 281 284 285
229 278 305 303 289 298 298 298 283 292 244 255 234 205 206 209 212 210 209 211 225 227 218 223 221 219 219 228 235 231 232 230 232 232 235 237 238 244 250 252 256 259 260 265 274 282 287 291 291
314 341 309 298 284 261 231 259 312 265 259 241 220 197 211 215 220 214 213 216 221 233 231 228 229 227 222 228 236 237 239 240 236 240 242 244 246 245 248 251 252 259 265 272 275 277 278 280 281
269 344 337 277 246 244 38 290 230 247 245 271 218 208 210 221 224 226 229 225 225 225 231 232 228 221 227 230 235 238 240 243 247 246 247 247 245 246 247 250 252 256 260 264 267 270 272 276 282
142 90 291 260 216 230 170 256 248 255 241 243 242 215 212 229 237 241 233 240 233 231 231 237 235 231 227 230 234 237 240 242 243 247 250 253 253 251 251 253 255 256 255 257 260 264 269 274 276
281 211 211 290 216 173 165 246 262 261 252 251 246 236 227 234 232 238 243 241 234 231 233 237 240 239 236 234 233 237 240 241 244 244 247 249 253 255 254 256 258 256 255 256 259 261 265 270 275
194 205 231 224 313 155 185 248 275 282 298 287 275 247 239 239 230 235 239 245 241 237 233 235 243 247 243 242 242 243 243 245 244 242 244 246 245 248 254 254 252 252 252 252 253 258 262 267 270
321 353 311 269 320 165 248 245 273 282 283 277 269 262 257 247 245 244 237 244 242 241 239 237 236 242 241 239 239 241 243 245 245 249 248 249 251 250 248 250 250 248 250 253 254 257 256 258 265
260 267 254 292 178 210 271 263 261 268 262 264 263 260 255 255 255 248 242 235 236 241 243 244 243 243 245 244 246 246 250 251 252 253 253 254 254 255 253 251 251 247 246 247 248 251 251 257 253
221 222 223 235 344 262 280 275 267 267 263 254 253 253 258 251 249 249 243 240 238 236 241 244 248 249 251 252 251 250 251 251 251 250 251 252 253 255 255 254 252 247 244 245 247 249 249 253 255
252 292 234 269 353 236 48 278 275 298 289 248 261 251 252 252 252 252 250 246 247 247 246 247 249 251 253 254 252 254 254 253 257 260 259 256 255 254 256 256 254 252 244 242 244 248 249 246 248
205 75 45 193 166 18 295 321 287 273 298 288 257 250 254 256 255 256 261 261 254 255 253 251 250 252 252 251 252 255 256 259 262 260 259 257 256 254 255 256 256 254 251 242 242 246 242 242 244
151 98 42 44 85 282 191 197 207 226 217 245 276 274 259 261 265 266 266 262 261 260 260 259 254 253 254 251 252 252 255 257 258 258 257 257 253 251 252 253 253 253 253 247 243 244 241 241 245
145 114 47 7 354 237 219 205 252 285 275 221 257 281 280 260 271 273 262 258 253 250 254 258 257 255 251 249 248 250 253 256 260 262 260 256 255 254 254 252 249 250 251 245 241 244 243 243 246
180 167 167 197 202 271 210 235 256 230 257 263 257 294 320 301 301 294 290 281 260 271 276 254 258 259 256 253 246 245 248 253 256 258 261 260 256 255 259 260 257 255 252 241 238 242 243 244 244
191 209 210 40 52 75 245 292 302 272 285 301 6 11 1 337 316 304 299 297 284 277 278 269 273 274 267 261 256 253 252 250 253 255 257 259 257 256 257 257 255 256 247 240 238 237 237 242 247
160 155 156 188 203 238 255 252 237 300 286 60 59 32 10 350 332 318 316 310 302 288 284 293 298 293 285 279 267 260 259 256 256 256 257 258 258 253 250 251 251 246 239 235 234 234 237 239 238
207 221 203 215 177 204 267 258 237 217 157 128 197 29 15 3 358 3 356 347 330 318 330 4 356 344 334 321 301 281 263 255 257 257 256 254 254 251 252 251 248 241 235 232 232 233 232 232 233
290 250 212 183 234 242 262 258 328 126 180 32 23 6 3 348 322 328 335 343 347 54 19 11 5 355 341 330 321 313 295 271 261 257 253 251 252 251 253 252 246 241 236 232 230 228 228 228 228